Latest Coastal Weather Observations for Christmas Island

IDW60701

Issued at 1:25 pm WST Thursday 31 July 2014 (issued every 10 minutes, with the page automatically refreshed every 10 minutes)

About coastal observations | Map of coastal stations | Coastal observations for WA | Marine services | Other Formats
Station Details ID: 200790 Name: CHRISTMAS ISLAND AERO Lat: -10.45 Lon: 105.69 Height: 261.0 m
Data from the previous 72 hours. | See also: Recent months at Christmas Island
Date/Time
WST
Temp

°C
Wind Pressure Rain
since 9am
mm
Weather Cloud Vis
km
Sea
Height
m
Swell
Dir
 
Speed
knots
Gust
knots
hPa Trend Height
m
Period
s
Dir
31/01:00pm 25.0 ESE 11 15 1013.7 - 0.2 - Mostly cloudy 10 - - - -
31/12:00pm 25.5 ESE 10 13 1015.8 - 0.2 - Cloudy 10 - - - -
31/11:00am 25.4 E 10 13 1016.6 - 0.0 - Cloudy 10 - - - -
31/10:00am 24.6 SE 10 14 1015.3 - - - Mostly cloudy 10 - - - -
31/09:00am 24.3 ESE 9 14 1016.2 - - - Partly cloudy 10 - - - -
31/08:00am 23.6 ESE 10 13 1015.7 - - - Cloudy 10 - - - -
31/07:00am 23.5 ESE 10 14 1013.9 - - - Cloudy 10 - - - -
31/06:00am 23.5 SE 8 11 1014.7 - - - Partly cloudy 10 - - - -
31/05:00am 23.3 ESE 9 13 1014.6 - - - Partly cloudy 10 - - - -
31/04:00am 23.2 SE 7 9 1013.3 - - - Cloudy 10 - - - -
31/03:00am 23.3 SE 7 10 1015.1 - - - Partly cloudy 10 - - - -
31/02:00am 23.4 SE 7 11 1015.3 - - - Partly cloudy 10 - - - -
31/01:00am 23.6 ESE 9 14 1014.1 - - - Mostly cloudy 10 - - - -
31/12:00am 23.5 ESE 8 11 1015.8 - - - Partly cloudy 10 - - - -
 
Date/Time
WST
Temp

°C
Wind Pressure Rain
since 9am
mm
Weather Cloud Vis
km
Sea
Height
m
Swell
Dir
 
Speed
knots
Gust
knots
hPa Trend Height
m
Period
s
Dir
30/11:42pm 23.4 ESE 8 11 1015.7 - - - Partly cloudy 10 - - - -
30/11:41pm 23.4 ESE 8 11 1015.6 - - - Partly cloudy 10 - - - -
30/11:00pm 23.4 ESE 7 12 1015.7 - - - Partly cloudy 10 - - - -
30/10:00pm 23.4 ESE 7 11 1014.1 - - - Cloudy 10 - - - -
30/09:21pm 23.5 ESE 9 11 1014.9 - - - Partly cloudy 10 - - - -
30/09:07pm 23.5 ESE 9 12 1014.7 - - - Partly cloudy 10 - - - -
30/09:00pm 23.5 ESE 10 13 1014.6 - - - Partly cloudy 10 - - - -
30/08:13pm 23.5 ESE 10 14 1013.8 - - - Partly cloudy 10 - - - -
30/08:12pm 23.5 ESE 10 14 1013.8 - - - Partly cloudy 10 - - - -
30/08:00pm 23.4 ESE 9 14 1013.7 - - - Partly cloudy 10 - - - -
30/07:00pm 23.3 SE 11 16 1011.7 - - - Cloudy 10 - - - -
30/06:00pm 23.9 ESE 11 16 1012.7 - - - Partly cloudy 10 - - - -
30/05:00pm 24.1 SE 12 15 1012.5 - - - Partly cloudy 10 - - - -
30/04:00pm 24.8 ESE 13 17 1011.1 - - - Cloudy 10 - - - -
30/03:13pm 24.9 ESE 11 18 1012.8 - - - Partly cloudy 10 - - - -
30/03:10pm 24.9 ESE 11 18 1012.8 - 0.0 - Partly cloudy 10 - - - -
30/03:06pm 24.9 ESE 13 18 1012.9 - - - Partly cloudy 10 - - - -
30/03:03pm 24.9 ESE 12 18 1012.9 - 0.0 - Partly cloudy 10 - - - -
30/03:00pm 25.4 ESE 13 17 1012.9 - 0.0 - Partly cloudy 10 - - - -
30/02:34pm 25.0 - - - 1013.2 - - - Partly cloudy 10 - - - -
30/02:00pm 24.7 ESE 11 16 1013.6 - 0.0 - Partly cloudy 10 - - - -
30/01:00pm 25.1 ESE 12 15 1013.1 - 0.0 - Cloudy 10 - - - -
30/12:46pm 25.9 ESE 11 14 1014.6 - 0.0 - Partly cloudy 10 - - - -
30/12:37pm 24.6 ESE 12 16 1014.9 - 0.0 - Partly cloudy 10 - - - -
30/12:00pm 24.7 ESE 11 15 1015.5 - 0.0 - Partly cloudy 10 - - - -
30/11:50am 25.5 ESE 10 14 1015.6 - 0.0 - Partly cloudy 10 - - - -
30/11:13am 24.5 ESE 10 14 - - 0.0 - Partly cloudy 10 - - - -
30/11:00am 24.7 ESE 10 15 1015.9 - 0.0 - Partly cloudy 10 - - - -
30/10:49am 24.6 ESE 10 13 1015.9 - 0.0 - Partly cloudy 10 - - - -
30/10:45am 24.4 ESE 10 13 1015.9 - 0.0 - Partly cloudy 10 - - - -
30/10:00am 24.2 ESE 9 13 1015.2 - 0.0 - Cloudy 10 - - - -
30/09:31am 24.2 ESE 10 14 1016.5 - 0.0 - Partly cloudy 10 - - - -
30/09:00am 24.0 ESE 11 14 1016.2 - 0.0 - Partly cloudy 10 - - - -
30/08:37am 23.8 ESE 11 15 1015.8 - 0.0 - Partly cloudy 10 - - - -
30/08:27am 23.7 ESE 10 16 1015.8 - 0.0 - Partly cloudy 10 - - - -
30/08:00am 23.5 SE 10 13 1015.6 - 0.0 - Partly cloudy 10 - - - -
30/07:00am 23.0 ESE 11 14 1013.9 - 0.0 - Cloudy 10 - - - -
30/06:00am 23.0 ESE 11 17 1015.0 - 0.0 - Partly cloudy 10 - - - -
30/05:00am 23.2 ESE 10 15 1015.0 - 0.0 - Partly cloudy 10 - - - -
30/04:00am 23.2 ESE 11 17 1013.7 - 0.0 - Cloudy 10 - - - -
30/03:00am 23.6 ESE 13 21 1015.4 - 0.0 - Partly cloudy 10 - - - -
30/02:00am 23.4 ESE 12 17 1015.6 - 0.0 - Partly cloudy 10 - - - -
30/01:58am 23.4 ESE 12 17 1015.6 - 0.0 - Partly cloudy 10 - - - -
30/01:00am 23.6 ESE 13 19 1014.3 - 0.0 - Mostly cloudy 10 - - - -
30/12:08am 23.8 ESE 12 17 1015.8 - 0.0 - Partly cloudy 10 - - - -
30/12:00am 23.7 ESE 12 17 1015.8 - 0.0 - Partly cloudy 10 - - - -
 
Date/Time
WST
Temp

°C
Wind Pressure Rain
since 9am
mm
Weather Cloud Vis
km
Sea
Height
m
Swell
Dir
 
Speed
knots
Gust
knots
hPa Trend Height
m
Period
s
Dir
29/11:00pm 23.8 ESE 11 16 1015.6 - 0.0 - Partly cloudy 10 - - - -
29/10:00pm 23.6 ESE 11 19 1014.1 - 0.0 - Mostly cloudy 10 - - - -
29/09:08pm 23.7 ESE 11 16 1015.0 - 0.0 - Partly cloudy 10 - - - -
29/09:03pm 23.7 ESE 11 16 1015.0 - 0.0 - Partly cloudy 10 - - - -
29/09:00pm 23.7 ESE 11 15 1015.0 - 0.0 - Partly cloudy 10 - - - -
29/08:35pm 23.6 ESE 11 17 1014.7 - 0.0 - Partly cloudy 10 - - - -
29/08:12pm 23.5 ESE 12 17 1014.5 - 0.0 - Partly cloudy 10 - - - -
29/08:00pm 23.7 SE 12 16 1014.3 - 0.0 - Partly cloudy 10 - - - -
29/07:53pm 23.8 ESE 10 16 1014.1 - 0.0 - Partly cloudy 10 - - - -
29/07:30pm 23.6 ESE 11 15 1013.9 - 0.0 - Partly cloudy 10 - - - -
29/07:16pm 23.6 SE 11 17 1013.8 - 0.0 - Partly cloudy 10 - - - -
29/07:00pm 23.6 ESE 10 16 1012.3 - 0.0 - Mostly cloudy 10 - - - -
29/06:51pm 23.6 SE 11 14 1013.7 - 0.0 - Partly cloudy 10 - - - -
29/06:15pm 24.2 ESE 11 15 1013.7 - 0.0 - Partly cloudy 10 - - - -
29/06:00pm 24.4 ESE 11 15 1013.5 - 0.0 - Partly cloudy 10 - - - -
29/05:00pm 24.5 ESE 11 15 1013.3 - 0.0 - Partly cloudy 10 - - - -
29/04:15pm 24.5 ESE 12 15 1013.3 - 0.0 - Partly cloudy 10 - - - -
29/04:00pm 24.8 ESE 12 19 1011.8 - 0.0 - Cloudy 10 - - - -
29/03:00pm 24.7 ESE 12 16 1013.4 - 0.0 - Partly cloudy 10 - - - -
29/02:57pm 24.8 ESE 12 16 1013.5 - 0.0 - Partly cloudy 10 - - - -
29/02:53pm 24.6 ESE 12 16 1013.5 - 0.0 - Partly cloudy 10 - - - -
29/02:00pm 24.8 ESE 10 14 1014.3 - 0.0 - Partly cloudy 10 - - - -
29/01:00pm 24.8 ESE 11 16 1013.6 - 0.0 - Mostly cloudy 10 - - - -
29/12:41pm 24.7 ESE 11 17 1015.2 - 0.0 - Partly cloudy 10 - - - -
29/12:00pm 24.9 ESE 12 18 1015.7 - 0.0 - Partly cloudy 10 - - - -
29/11:00am 25.6 ESE 11 18 1016.2 - 0.0 - Partly cloudy 10 - - - -
29/10:00am 24.5 ESE 11 19 1015.0 - 0.0 - Cloudy 10 - - - -
29/09:00am 23.9 ESE 11 16 1016.2 - 0.0 - Partly cloudy 10 - - - -
29/08:00am 23.5 ESE 11 18 1015.6 - 0.0 - Partly cloudy 10 - - - -
29/07:00am 22.8 SE 10 15 1013.8 - 0.0 - Cloudy 10 - - - -
29/06:00am 23.0 SE 13 17 1014.6 - 0.0 - Partly cloudy 10 - - - -
29/05:32am 23.0 ESE 13 18 1014.5 - 0.0 - Partly cloudy 10 - - - -
29/05:04am 23.0 SE 11 17 1014.3 - 0.0 - Partly cloudy 10 - - - -
29/05:00am 22.9 SE 10 17 1014.3 - 0.0 - Partly cloudy 10 - - - -
29/04:50am 23.0 SE 11 15 1014.3 - 0.0 - Partly cloudy 10 - - - -
29/04:00am 22.9 SE 12 17 1013.0 - 0.0 - Partly cloudy 10 - - - -
29/03:00am 23.1 SE 12 18 1014.8 - 0.0 - Partly cloudy 10 - - - -
29/02:00am 22.9 SE 11 16 1015.2 - 0.0 - Partly cloudy 10 - - - -
29/01:00am 23.4 SE 13 18 1014.5 - 0.0 - Cloudy 10 - - - -
29/12:00am 23.4 SE 13 19 1015.8 - 0.0 - Partly cloudy 10 - - - -
 
Date/Time
WST
Temp

°C
Wind Pressure Rain
since 9am
mm
Weather Cloud Vis
km
Sea
Height
m
Swell
Dir
 
Speed
knots
Gust
knots
hPa Trend Height
m
Period
s
Dir
28/11:00pm 23.4 SE 12 17 1015.8 - 0.0 - Partly cloudy 10 - - - -
28/10:00pm 23.4 SE 13 19 1014.3 - 0.0 - Cloudy 10 - - - -
28/09:00pm 23.6 ESE 14 19 1015.3 - 0.0 - Partly cloudy 10 - - - -
28/08:00pm 23.4 SE 13 19 1014.6 - 0.0 - Partly cloudy 10 - - - -
28/07:00pm 23.5 SE 15 21 1012.7 - 0.0 - Mostly clear 10 - - - -
28/06:00pm 23.9 ESE 15 24 1014.2 - 0.0 - Partly cloudy 10 - - - -
28/05:00pm 24.4 SE 15 21 1013.9 - 0.0 - Partly cloudy 10 - - - -
28/04:00pm 24.7 ESE 15 21 1012.6 - 0.0 - Mostly cloudy 10 - - - -
28/03:00pm 25.6 ESE 17 25 1014.2 - 0.0 - Partly cloudy 10 - - - -

Other Formats:

Comma delimited format used in spreadsheet applications
http://www.bom.gov.au/fwo/IDW60701/IDW60701.96995.axf

JavaScript Object Notation format (JSON) in row-major order
http://www.bom.gov.au/fwo/IDW60701/IDW60701.96995.json